Location: Cosy Dell
(34.2789°N, 117.4537°W)
Time: 00:49:36
(UTC+00:00)

Terra - Pass Details

Date: 14 July 2020
Orbit: 702 x 703 km, 98.2° (Epoch: 12 August)

Event Time Altitude Azimuth Distance (km) Brightness Sun altitude
Exits shadow 05:35:50 50° 63° (ENE) 889 2.2 -25.0°
Drops below altitude 10° 05:40:12 10° 359° (N) 2,175 5.1 -25.5°
Sets 05:42:31 0° 354° (N) 3,097 6.1 -25.8°
